Theta_e
312 311 311 310 311 313 314 313 312 311 311 310 310 309 310 311 311 309 308 307 307 305 304 305 305 305 304 303 303 301 300 299 298 298 297 296 296 295 294 293 293 292 291 291
311 311 312 314 314 313 313 313 311 311 311 312 310 311 312 312 312 310 309 308 305 304 304 304 305 304 303 302 302 300 299 298 297 296 296 295 295 294 293 291 291 290 290 290
311 313 314 314 313 313 312 312 311 311 311 310 310 311 311 312 311 312 311 309 305 304 304 304 304 304 303 302 301 299 298 297 296 295 294 294 293 292 291 290 290 289 289 289
310 311 312 312 312 312 311 311 312 312 311 311 310 311 310 311 311 311 312 308 307 305 304 303 303 302 302 301 300 299 297 296 296 294 293 293 292 292 290 290 289 288 288 288
311 311 312 312 311 312 311 312 311 312 310 309 310 309 309 310 311 312 309 306 305 303 302 301 301 301 301 301 300 298 296 295 295 293 292 291 291 291 289 289 288 288 287 287
310 311 311 311 311 311 311 311 312 311 311 312 312 311 312 316 317 313 310 308 305 303 302 301 302 302 300 299 298 296 295 294 294 292 291 290 289 289 288 287 287 287 287 287
309 309 309 310 310 310 310 311 313 314 314 314 312 310 319 316 314 313 310 307 304 302 300 300 299 299 298 297 296 294 294 293 293 291 290 289 288 287 287 286 285 286 286 285
309 309 308 311 310 311 312 310 314 316 314 311 310 310 317 313 312 310 308 306 304 302 300 297 296 296 296 296 294 293 293 292 291 289 288 288 287 287 285 284 284 284 284 284
309 309 309 310 310 309 309 308 309 310 310 311 310 314 315 312 311 310 308 306 303 301 298 296 295 295 295 294 292 291 291 291 290 288 287 287 286 284 282 282 281 282 282 282
307 308 308 308 309 308 308 309 309 311 313 313 312 311 319 318 313 312 308 306 306 303 299 296 293 293 294 292 291 286 287 289 289 287 284 285 284 284 284 283 282 281 281 281
306 307 307 307 308 309 309 310 309 310 313 316 315 311 315 316 317 312 308 304 301 300 296 294 292 290 292 292 291 288 284 286 288 288 286 285 284 284 285 283 282 281 280 280
308 308 308 310 309 310 310 310 309 312 311 315 314 314 313 312 316 315 309 305 302 296 294 291 290 291 291 290 290 289 287 284 284 286 287 287 285 285 286 285 283 282 281 279
308 308 310 309 309 309 309 309 309 310 313 312 306 307 316 314 315 316 312 307 304 300 294 290 289 289 290 288 288 288 288 287 286 286 287 287 287 285 285 286 284 283 281 280
306 306 307 307 310 308 307 307 308 309 308 312 311 312 312 312 314 313 312 306 302 299 296 291 287 288 289 287 286 286 288 287 288 287 286 286 287 286 285 284 284 282 281 279
306 307 307 307 307 307 307 308 308 308 308 309 308 310 310 309 309 313 310 306 304 298 295 292 290 288 288 288 286 285 287 287 287 288 287 286 285 285 284 284 283 282 280 279
307 307 308 307 308 308 308 307 307 308 308 309 308 308 306 306 311 314 311 307 303 299 296 293 291 289 288 288 288 289 288 288 287 286 286 286 285 284 284 283 282 281 280 279
308 308 309 311 310 310 310 307 308 308 309 309 308 307 306 312 313 313 310 306 303 301 298 294 292 290 288 289 290 289 289 288 287 287 286 286 285 284 283 282 281 280 279 278
307 308 308 309 309 310 306 308 307 308 307 307 311 312 312 312 309 310 306 304 303 300 297 294 291 290 290 290 289 288 288 287 286 286 285 285 284 284 283 282 281 281 280 280
306 307 310 310 309 308 308 307 307 311 311 312 312 312 310 308 306 306 306 303 300 298 294 292 291 290 289 289 289 288 287 286 285 285 284 284 284 283 283 282 282 282 281 280
306 307 309 308 311 311 308 311 311 311 310 311 310 310 309 307 305 301 302 299 296 293 292 290 290 289 289 289 289 287 286 285 284 284 283 283 283 283 282 282 282 282 282 281
308 308 310 309 310 310 308 310 310 312 312 310 308 308 307 308 305 301 298 297 293 292 291 290 290 290 289 289 288 287 286 285 284 284 283 283 282 282 283 283 283 282 282 282
309 313 311 311 313 312 311 311 312 309 310 308 308 308 306 302 301 299 296 295 294 293 292 291 290 290 289 289 288 287 286 284 284 283 283 282 282 283 283 283 283 283 282 283
312 311 313 311 307 308 310 310 311 309 308 308 307 306 305 302 300 297 296 296 295 293 291 290 290 290 290 289 288 287 286 285 284 284 283 283 283 283 283 283 282 282 282 281
311 311 312 311 309 311 311 309 309 308 308 307 306 304 303 301 299 297 296 296 294 292 291 290 290 289 289 289 288 288 286 285 285 284 284 283 283 283 282 281 281 281 281 280
307 309 311 309 308 310 310 310 310 308 306 305 305 303 302 300 298 297 297 296 293 292 291 290 290 289 289 289 288 287 286 286 285 285 284 283 283 282 282 281 280 276 275 276
308 309 311 311 310 310 310 308 309 307 306 304 304 303 302 300 298 297 296 295 293 292 291 290 290 289 289 288 287 287 286 286 285 285 284 283 283 282 282 280 278 276 277 276
Wind_Speed
7 2 7 11 10 8 4 6 9 7 11 7 6 6 6 13 8 9 13 12 11 15 15 23 19 16 17 13 13 15 16 18 20 22 23 23 22 21 21 20 21 23 24 24
5 10 13 10 7 6 5 6 7 6 10 13 10 11 5 5 9 13 11 15 17 15 12 16 20 16 18 16 15 15 16 18 20 20 20 19 18 18 20 23 24 23 25 24
9 9 9 8 5 5 5 5 6 7 7 7 9 12 7 6 8 10 14 15 20 20 16 12 16 19 19 16 14 14 14 17 19 18 19 18 17 18 21 24 23 24 23 22
8 10 12 4 3 5 5 6 6 7 7 2 7 9 7 15 14 16 8 17 16 17 14 12 15 20 19 15 12 12 12 15 15 17 19 20 20 17 19 19 20 22 23 22
7 7 3 2 2 4 2 6 4 3 4 7 3 4 5 4 8 8 16 19 17 14 13 11 16 22 17 14 13 12 13 15 14 16 18 19 18 16 16 18 19 21 22 22
8 8 3 4 2 1 5 3 6 5 2 5 14 8 9 5 6 11 15 16 14 14 14 14 20 21 19 15 13 14 16 15 13 13 16 17 17 16 17 19 19 20 22 23
5 12 11 9 6 3 4 1 3 3 1 6 6 5 5 10 16 12 16 15 14 13 11 8 10 18 19 17 14 13 16 15 13 13 15 16 15 17 18 21 21 20 21 24
5 6 4 7 14 6 6 8 4 4 3 9 7 3 1 3 11 17 14 13 11 9 7 8 14 19 17 17 15 11 13 16 15 13 15 16 16 17 18 18 18 18 20 20
2 4 12 9 4 5 1 4 5 4 6 2 4 4 2 5 7 9 10 8 7 8 9 10 16 17 15 16 13 9 10 15 13 12 11 14 15 18 23 25 28 19 19 18
4 4 7 7 7 5 6 4 2 3 3 5 5 4 4 7 5 4 3 5 7 7 8 8 14 15 13 12 10 9 9 11 13 11 15 14 15 14 18 23 25 30 24 23
3 1 4 7 3 7 5 5 4 3 4 1 4 5 5 5 8 10 9 10 8 9 5 8 14 13 11 9 10 10 12 11 11 10 11 17 18 15 16 20 23 27 29 26
3 1 4 7 8 13 9 8 3 3 5 5 5 11 5 7 3 7 10 12 9 9 7 7 14 14 11 11 11 9 10 15 14 9 8 9 14 18 15 16 20 22 28 28
4 3 4 7 5 7 3 6 7 7 1 3 3 5 2 4 6 10 11 12 14 13 11 8 11 13 12 11 11 11 11 9 11 12 10 8 9 15 17 16 18 20 24 27
3 2 4 5 5 9 9 13 13 7 1 6 6 8 7 10 11 12 10 13 13 12 12 9 7 12 12 11 10 11 12 10 8 7 12 12 12 13 15 18 20 21 21 23
4 5 6 12 12 13 16 16 15 13 13 7 13 14 7 8 7 4 9 13 14 14 12 11 9 11 13 12 12 12 12 11 10 9 8 11 12 13 14 17 17 18 21 22
3 5 5 9 11 14 18 14 13 18 19 18 20 20 11 10 5 8 13 16 14 14 14 14 12 15 14 15 15 14 14 14 14 12 11 11 12 14 16 17 18 18 18 21
2 1 3 10 7 11 12 11 16 17 19 13 16 16 9 4 5 8 9 15 15 14 14 14 14 17 17 18 15 17 15 16 14 13 13 13 14 15 15 15 16 17 19 22
6 3 3 4 4 10 8 7 12 14 11 13 4 12 4 6 4 4 8 11 11 13 14 12 18 19 20 20 19 17 16 16 16 16 15 14 14 15 16 15 16 16 17 20
12 5 4 4 5 10 15 12 8 1 5 1 3 3 5 6 6 6 6 5 7 10 14 18 27 26 24 22 21 19 20 19 17 16 15 14 14 14 14 14 14 13 15 17
14 12 8 3 4 4 4 3 5 3 4 4 4 7 7 5 3 3 5 8 10 20 24 24 28 26 23 21 20 23 22 19 17 14 13 13 13 13 12 12 12 13 12 13
5 10 16 10 7 7 4 4 2 4 4 3 3 7 7 4 2 6 8 9 20 22 23 24 25 24 24 23 25 23 21 19 18 17 16 15 14 13 10 8 9 12 12 10
7 5 3 5 5 8 3 6 3 5 3 4 2 5 10 11 10 9 8 11 18 20 21 21 20 22 24 23 24 23 19 19 18 16 15 14 13 11 10 8 9 8 9 11
3 5 5 5 6 4 3 5 3 2 3 2 6 8 12 12 8 9 8 9 15 21 21 21 18 24 22 23 23 22 20 21 20 18 16 14 12 10 9 8 9 11 10 11
9 6 3 3 4 2 6 8 4 2 3 5 10 10 11 11 11 9 7 7 14 20 20 21 22 22 21 22 22 20 24 22 19 18 16 13 13 11 10 9 5 6 8 10
6 4 2 3 12 7 4 12 7 3 5 7 8 8 11 14 12 10 8 6 15 19 20 21 22 22 21 20 19 26 25 23 21 19 16 15 13 15 12 8 6 8 7 5
5 4 4 3 8 3 7 11 9 7 5 7 7 5 12 13 13 10 7 13 18 18 20 22 25 23 19 18 26 24 22 20 20 19 18 16 13 13 11 11 11 6 7 7
Wind_Direction
268 186 229 239 236 260 325 344 330 314 324 328 281 265 205 206 197 177 178 163 154 124 123 116 114 106 96 79 65 53 43 28 32 33 26 31 32 33 23 17 6 8 5 2
273 256 253 249 304 334 333 308 303 301 332 334 336 302 256 180 214 200 182 164 133 129 126 122 119 111 100 87 75 63 51 37 35 34 32 32 32 27 29 19 20 15 11 7
237 256 286 272 242 295 307 312 305 308 337 348 337 301 326 308 318 192 196 158 145 144 136 127 121 115 101 87 75 69 60 41 33 33 39 41 41 33 24 20 16 12 11 9
262 250 267 3 358 349 318 308 8 359 3 299 36 294 284 275 276 282 183 127 133 128 121 121 117 106 103 96 80 75 59 48 44 35 46 45 42 35 25 18 13 11 14 10
248 327 11 333 284 338 279 4 330 305 293 307 181 243 296 305 294 102 108 110 112 119 118 109 111 112 112 108 93 78 74 64 52 40 45 49 46 41 29 20 16 15 13 12
256 284 267 228 287 14 346 352 320 285 248 271 260 219 286 9 327 104 108 110 113 109 110 110 119 122 111 103 91 78 79 72 57 43 46 48 46 36 28 22 18 14 12 12
257 248 251 224 228 206 257 210 329 330 123 228 288 312 39 18 9 131 121 113 107 104 103 113 117 105 103 94 78 85 70 75 63 52 49 47 44 39 34 25 22 18 16 15
258 318 297 223 207 182 208 202 177 253 273 296 320 249 130 65 50 70 74 95 100 119 128 110 107 104 102 98 87 92 79 69 70 64 56 55 49 46 39 34 28 27 23 18
269 267 339 348 48 143 199 264 215 259 275 253 220 80 132 109 88 97 107 113 140 130 126 117 113 111 100 108 105 108 110 81 76 70 65 66 56 61 53 50 46 41 34 29
348 326 317 326 333 275 196 204 345 345 302 276 280 320 190 168 173 191 128 150 144 138 119 115 102 113 112 111 112 108 114 100 89 76 70 73 68 69 60 52 48 45 47 45
65 154 302 322 271 288 293 288 228 224 148 181 316 271 166 127 169 201 208 195 162 139 119 130 113 118 124 117 127 109 96 114 115 101 83 75 69 66 60 58 54 48 48 50
21 252 281 241 297 298 290 284 303 130 264 212 195 260 217 175 196 177 194 181 180 144 131 108 126 137 131 119 133 124 120 96 85 114 117 89 75 64 58 62 60 53 47 47
342 327 342 326 303 289 303 325 346 326 110 255 155 269 202 168 209 214 196 173 172 162 149 140 133 148 150 163 150 159 137 123 106 87 100 81 92 72 61 59 66 56 50 43
80 221 207 210 267 318 300 310 319 327 50 311 250 278 303 269 225 234 194 170 162 162 165 157 151 167 153 163 169 158 149 138 125 131 91 85 85 79 70 71 71 64 57 43
169 224 263 274 284 290 293 298 299 291 274 256 279 267 256 257 251 289 165 156 159 165 160 164 165 167 174 176 173 146 149 144 142 142 116 95 87 87 81 74 70 66 61 51
199 245 244 273 266 270 271 266 261 264 272 268 270 274 240 249 117 105 148 154 176 168 167 164 164 171 179 184 179 170 165 152 131 122 120 108 101 95 87 80 74 65 59 58
294 350 315 276 278 301 281 242 245 251 253 251 258 270 275 114 147 177 165 169 168 167 161 161 164 170 176 184 179 160 150 145 139 127 117 108 101 96 91 86 78 70 63 60
224 238 282 291 9 269 247 234 246 252 265 260 358 328 105 126 66 102 148 152 154 154 153 155 158 168 173 160 152 151 145 133 124 117 111 109 103 96 93 89 84 76 68 59
211 205 250 245 222 283 305 287 278 87 280 205 88 176 139 110 73 30 119 124 138 138 137 142 151 147 144 149 149 146 132 128 124 116 114 115 114 107 99 91 89 85 75 68
208 200 208 216 240 264 226 120 79 158 291 184 184 170 138 133 107 234 131 112 106 122 133 136 139 143 145 151 152 139 133 133 127 131 128 125 120 112 104 98 89 87 85 76
181 200 214 223 244 271 263 131 72 60 232 220 193 163 156 137 200 147 119 106 124 129 131 137 145 151 158 159 151 144 146 145 144 143 137 129 122 118 117 113 97 84 79 90
251 203 189 209 231 260 342 117 173 216 182 175 116 123 108 119 113 116 116 128 130 133 140 149 154 157 159 162 157 154 157 157 155 147 139 132 127 132 133 121 106 98 87 94
287 200 179 194 219 223 202 169 246 280 202 176 126 135 136 134 132 135 140 143 142 143 150 162 166 155 168 167 165 160 161 162 160 157 152 145 142 136 128 128 123 101 99 96
355 312 223 337 264 188 337 317 303 217 325 120 128 132 136 134 138 145 155 168 145 151 158 170 152 160 170 174 176 168 164 168 166 165 162 156 149 148 142 137 121 141 111 103
242 266 274 286 283 320 327 254 200 152 112 93 116 142 139 140 149 158 171 172 149 156 165 160 154 163 171 179 176 164 167 169 172 171 171 170 162 155 143 127 107 97 101 86
216 226 186 215 254 203 201 214 192 144 137 136 125 119 140 145 152 163 168 171 153 162 160 149 159 163 169 161 159 163 169 173 177 177 175 173 173 182 177 155 136 119 97 90